Weather History for KSTS - February, 2014

Change the Weather History Date:

Saturday, February 1, 2014

  Actual Average Record
Temperature  
Mean Temperature 44 °F 48 °F  
Max Temperature 61 °F 59 °F 77 °F (2005)
Min Temperature 27 °F 38 °F 27 °F (2014)
Degree Days  
Heating Degree Days 21    
Month to date heating degree days 21  
Since 1 July heating degree days 1593  
Cooling Degree Days 0    
Month to date cooling degree days 0  
Year to date cooling degree days 0  
Moisture  
Dew Point 32 °F    
Average Humidity 64    
Maximum Humidity 100    
Minimum Humidity 27    
Precipitation  
Precipitation 0.00 in 0.19 in 0.41 in (2006)
Month to date precipitation 0.00 0.19  
Year to date precipitation 0.10 7.24  
Since 1 July precipitation 2.12 21.43  
Sea Level Pressure  
Sea Level Pressure 30.08 in    
Wind  
Wind Speed 4 mph (SW)    
Max Wind Speed 13 mph    
Max Gust Speed 16 mph    
Visibility 10 miles    
Events      
T = Trace of Precipitation, MM = Missing Value Source: NWS Daily Summary

Daily Weather History Graph

Daily Weather History Graph

Search for Another Location

Airport or City:

Trip Planner

Search our weather history database for the weather conditions in past years. The results will help you decide how hot, cold, wet, or windy it might be!

Date:

Astronomy

Feb. 01, 2014 Rise Set
Actual Time 7:16 AM PST 5:33 PM PST
Civil Twilight 6:48 AM PST 6:01 PM PST
Nautical Twilight 6:16 AM PST 6:33 PM PST
Astronomical Twilight 5:45 AM PST 7:04 PM PST
Moon 8:11 AM PST (2/1) 8:12 PM PST (2/1)
Length of Visible Light 11h 12m
Length of Day
10h 17m
Waxing Crescent, 5% of the Moon is Illuminated
Feb 1
Waxing Crescent
Feb 6
First Quarter
Feb 14
Full
Feb 22
Last Quarter
Mar 1
New

Hourly Weather History & Observations

Time (PST) Temp. Windchill Dew Point Humidity Pressure Visibility Wind Dir Wind Speed Gust Speed Precip Events Conditions
12:53 AM 37.0 °F - 30.0 °F 76% 30.08 in 10.0 mi Calm Calm - N/A   Clear
1:53 AM 34.0 °F 31.0 °F 28.9 °F 82% 30.08 in 10.0 mi NW 3.5 mph - N/A   Clear
2:53 AM 35.1 °F 31.0 °F 30.0 °F 82% 30.08 in 10.0 mi NNW 4.6 mph - N/A   Clear
3:53 AM 33.1 °F - 28.9 °F 85% 30.09 in 10.0 mi Calm Calm - N/A   Clear
4:53 AM 30.9 °F 27.5 °F 27.0 °F 85% 30.10 in 10.0 mi West 3.5 mph - N/A   Clear
5:53 AM 30.0 °F - 27.0 °F 88% 30.11 in 10.0 mi Calm Calm - N/A   Clear
6:53 AM 28.9 °F 23.9 °F 27.0 °F 92% 30.12 in 10.0 mi NNW 4.6 mph - N/A   Clear
7:53 AM 30.9 °F 27.5 °F 28.9 °F 92% 30.13 in 10.0 mi WNW 3.5 mph - N/A   Clear
8:53 AM 39.9 °F 37.8 °F 34.0 °F 79% 30.14 in 10.0 mi WNW 3.5 mph - N/A   Clear
9:53 AM 46.0 °F - 34.0 °F 63% 30.14 in 10.0 mi Calm Calm - N/A   Clear
10:53 AM 50.0 °F - 34.0 °F 54% 30.14 in 10.0 mi Calm Calm - N/A   Clear
11:53 AM 54.0 °F - 30.9 °F 41% 30.11 in 10.0 mi Calm Calm - N/A   Clear
12:53 PM 57.9 °F - 30.0 °F 35% 30.09 in 10.0 mi South 6.9 mph - N/A   Clear
1:53 PM 59.0 °F - 28.9 °F 32% 30.06 in 10.0 mi South 5.8 mph - N/A   Clear
2:53 PM 60.1 °F - 26.1 °F 27% 30.05 in 10.0 mi SSE 9.2 mph - N/A   Clear
3:53 PM 57.0 °F - 30.9 °F 37% 30.05 in 10.0 mi WSW 9.2 mph - N/A   Clear
4:53 PM 54.0 °F - 30.0 °F 40% 30.06 in 10.0 mi SSW 6.9 mph - N/A   Clear
5:53 PM 48.9 °F - 32.0 °F 52% 30.06 in 10.0 mi SSE 6.9 mph - N/A   Partly Cloudy
6:53 PM 44.1 °F 42.5 °F 35.1 °F 71% 30.06 in 10.0 mi South 3.5 mph - N/A   Clear
7:53 PM 41.0 °F 35.8 °F 36.0 °F 82% 30.05 in 10.0 mi ESE 8.1 mph - N/A   Clear
8:53 PM 39.9 °F 35.8 °F 37.0 °F 89% 30.05 in 10.0 mi ESE 5.8 mph - N/A   Clear
9:53 PM 37.9 °F - 36.0 °F 93% 30.06 in 10.0 mi Calm Calm - N/A   Clear
10:38 PM 37.9 °F - 36.0 °F 93% 30.06 in 10.0 mi Calm Calm - N/A   Mostly Cloudy
10:53 PM 36.0 °F - 35.1 °F 97% 30.04 in 10.0 mi Calm Calm - N/A   Mostly Cloudy
11:02 PM 37.0 °F - 36.0 °F 96% 30.05 in 10.0 mi Calm Calm - N/A   Scattered Clouds
11:53 PM 35.1 °F 30.1 °F 34.0 °F 96% 30.02 in 10.0 mi NNW 5.8 mph - N/A   Scattered Clouds